[[{"header":{"parameterUnit":"m.s-1","parameterCategory":1,"la1":30.2991,"la2":30.254,"lo1":-89.0895,"lo2":-89.0444,"dy":0.0017,"dx":0.0017,"nx":28,"ny":28,"refTime":"2024-10-01T21:00:00:Z","depth":0,"parameterNumber":2,"parameterNumberName":"U-component_of_WINDS"},"data":[0,0,0,0,0,0,0,0,0,0,0,0,0,0,0,0,0,0,0,0,0,0,0,0,0,0,0,0,0,0,0,0,0,0,0,0,0,0,0,0,0,0,0,0,0,0,0,0,0,0,0,0,0,0,0,0,0,0,0.2121,0.2121,0,0.2123,0.2123,0.2123,0.2103,0.2103,0.2102,0.2102,0.2104,0.2105,0.2106,0,0,0,0,0,0,0,0,0,0,0,0,0,0.2101,0.2101,0.2121,0.2121,0.2121,0.2123,0.2123,0.2123,0.2104,0.2103,0.2102,0.2102,0.2104,0.2105,0.2106,0,0,0,0,0,0,0,0,0,0,0,0,0,0.2107,0.2101,0.2121,0.2111,0.2111,0.2123,0.2123,0.2123,0.2104,0.2103,0.2102,0.2101,0.2104,0.2105,0.2106,0.2127,0,0,0.2108,0.2109,0,0,0,0,0,0,0,0,0.2107,0.2108,0.2113,0.2112,0.2111,0.2112,0.2117,0.2124,0.2104,0.2106,0.2102,0.2101,0.2108,0.2108,0.211,0.2127,0.2127,0.2108,0.2109,0.2109,0.211,0,0,0,0,0,0,0,0.2106,0.2107,0.2121,0.2113,0.2112,0.2107,0.2107,0.2118,0.2111,0.2106,0.2105,0.2105,0.2107,0.211,0.211,0.2127,0.2108,0.2109,0.211,0.211,0.2163,0.2163,0,0,0,0,0,0,0.2107,0.2107,0.2121,0.2122,0.2107,0.2108,0.2108,0.2113,0.2111,0.211,0.2106,0.2104,0.2108,0.2109,0.211,0.2136,0.2109,0.211,0.2111,0.2162,0.2163,0.2164,0,0,0,0,0,0,0.2107,0.2108,0.2121,0.2114,0.2115,0.211,0.2114,0.2113,0.2115,0.2111,0.211,0.2109,0.2108,0.2109,0.2123,0.2135,0.211,0.2111,0.2161,0.2162,0.2163,0.2186,0,0,0,0,0,0,0.2106,0.2108,0.2116,0.2114,0.2116,0.2134,0.2115,0.2114,0.2117,0.2115,0.2114,0.2113,0.2107,0.2122,0.2124,0.2136,0.2112,0.216,0.2161,0.2163,0.2184,0.2188,0.2191,0,0,0,0,0,0.2105,0.2122,0.2117,0.2118,0.2125,0.2135,0.2136,0.2128,0.2118,0.2126,0.2123,0.2113,0.2134,0.2124,0.2126,0.2138,0.2159,0.2161,0.2163,0.2183,0.2187,0.2191,0,0,0,0,0,0,0.2126,0.2122,0.2116,0.2132,0.2134,0.2131,0.2141,0.2133,0.2138,0.2136,0.2126,0.2126,0.2142,0.2142,0.213,0.2159,0.2144,0.2147,0.2159,0.2163,0.2167,0.2167,0.2113,0,0,0,0,0,0.2132,0.214,0.2136,0.2152,0.2153,0.2147,0.2151,0.2145,0.2146,0.2147,0.2145,0.2147,0.2154,0.2159,0.2165,0.2184,0.2184,0.2194,0.2197,0.22,0.2203,0.2214,0.2218,0.217,0.217,0.217,0,0,0.2146,0.2145,0.215,0.2156,0.2156,0.2165,0.2148,0.2157,0.2164,0.2148,0.2162,0.2161,0.2162,0.2179,0.2187,0.2179,0.2216,0.2203,0.2205,0.2206,0.2216,0.2221,0.2225,0.2172,0.2171,0.2171,0,0,0.2175,0.2175,0.2188,0.2189,0.219,0.2186,0.2189,0.2188,0.2186,0.22,0.2188,0.2196,0.2208,0.2209,0.2212,0.2242,0.2234,0.2245,0.2263,0.2274,0.2277,0.2281,0.2292,0.2296,0.2247,0.2247,0.2247,0,0.2192,0.2204,0.2195,0.2206,0.2209,0.2196,0.2209,0.221,0.2213,0.2216,0.2208,0.2222,0.2222,0.224,0.2247,0.225,0.2253,0.2244,0.2278,0.2281,0.2284,0.2294,0.2298,0.2248,0.2248,0.2248,0.2248,0,0.2224,0.2233,0.2243,0.2247,0.2251,0.2263,0.2257,0.2262,0.2256,0.2253,0.2267,0.2267,0.2273,0.2276,0.227,0.2293,0.2289,0.2279,0.2264,0.229,0.23,0.2304,0.225,0.225,0.2249,0.2249,0,0,0.2266,0.2265,0.2269,0.2271,0.2271,0.2278,0.2289,0.2295,0.23,0.2303,0.2312,0.2323,0.2314,0.2317,0.2311,0.2321,0.2345,0.231,0.231,0.2317,0.2371,0.2378,0.2383,0.234,0.234,0.2341,0.2371,0,0.2295,0.2314,0.2307,0.2327,0.2335,0.2323,0.2333,0.2335,0.2332,0.2339,0.2337,0.2344,0.2332,0.2334,0.2343,0.234,0.2356,0.2338,0.2349,0.2349,0.2349,0.2388,0.2396,0.2424,0.2375,0.2375,0.2376,0,0.233,0.2334,0.2355,0.2355,0.2358,0.2367,0.2372,0.2379,0.238,0.2378,0.2382,0.2374,0.2386,0.2371,0.2387,0.2375,0.2379,0.2379,0.238,0.2381,0.2364,0.239,0.2433,0.2437,0.2382,0.2381,0.2381,0,0.2359,0.237,0.2384,0.2386,0.2385,0.2392,0.2392,0.2393,0.2397,0.2402,0.2405,0.241,0.2414,0.2419,0.2413,0.2403,0.243,0.2415,0.2429,0.2429,0.2436,0.2435,0.248,0.2438,0.2438,0.2438,0.2438,0,0.2392,0.2405,0.2397,0.2405,0.242,0.2412,0.2427,0.2426,0.2427,0.2436,0.2425,0.2434,0.2426,0.2433,0.2429,0.2444,0.2445,0.2444,0.2443,0.2445,0.2445,0.2447,0.2445,0.2439,0.2439,0.2438,0.2438,0,0.2426,0.2421,0.2436,0.2434,0.2434,0.2445,0.2444,0.2452,0.245,0.2461,0.2463,0.2458,0.2467,0.2462,0.2471,0.2468,0.2487,0.2483,0.2486,0.2485,0.25,0.2499,0.2547,0.2554,0.2508,0.2508,0.2508,0,0.2447,0.2457,0.2457,0.2462,0.2463,0.2471,0.2475,0.2468,0.2473,0.2476,0.2484,0.2491,0.2497,0.2512,0.2509,0.2516,0.2512,0.2529,0.2513,0.2516,0.2513,0.2513,0.2514,0.2532,0.2533,0.2533,0.2534,0,0.2486,0.2483,0.2489,0.2495,0.25,0.2504,0.2508,0.2512,0.2505,0.2511,0.252,0.2524,0.2533,0.2541,0.2547,0.2548,0.254,0.2539,0.2542,0.2545,0.2547,0.2546,0.2495,0.2538,0.2537,0.2537,0.2537,0.2537,0.2514,0.2523,0.2524,0.2532,0.2534,0.2537,0.2545,0.2543,0.255,0.2557,0.2552,0.2562,0.2564,0.2572,0.2573,0.2582,0.2575,0.258,0.2582,0.2583,0.2585,0.2545,0.2583,0.2582,0.2582,0.2582,0.2582,0,0.2552,0.2553,0.256,0.2565,0.2571,0.2563,0.2566,0.2572,0.2581,0.2584,0.259,0.26,0.2608,0.2606,0.2613,0.262,0.2617,0.2622,0.2622,0.2622,0.2591,0.2587,0.2625,0.2625,0.2625,0.2625,0.2625,0.2625,0.2573,0.2587,0.2584,0.26,0.26,0.261,0.2612,0.2616,0.2618,0.263,0.2636,0.2635,0.2636,0.2643,0.265,0.265,0.2653,0.266,0.2658,0.2629,0.2624,0.262,0.2617,0.2661,0.2661,0.2689,0.269,0.269]},{"header":{"parameterUnit":"m.s-1","parameterCategory":1,"la1":30.2991,"la2":30.254,"lo1":-89.0895,"lo2":-89.0444,"dy":0.0017,"dx":0.0017,"nx":28,"ny":28,"refTime":"2024-10-01T21:00:00:Z","depth":0,"parameterNumber":3,"parameterNumberName":"V-component_of_WINDS"},"data":[0,0,0,0,0,0,0,0,0,0,0,0,0,0,0,0,0,0,0,0,0,0,0,0,0,0,0,0,0,0,0,0,0,0,0,0,0,0,0,0,0,0,0,0,0,0,0,0,0,0,0,0,0,0,0,0,0,0,-2.1174,-2.1175,0,-2.1249,-2.125,-2.1251,-2.1265,-2.1264,-2.1264,-2.1263,-2.1339,-2.1341,-2.1344,0,0,0,0,0,0,0,0,0,0,0,0,0,-2.1041,-2.1044,-2.1174,-2.1175,-2.1176,-2.1249,-2.125,-2.1251,-2.1265,-2.1264,-2.1263,-2.1263,-2.1338,-2.1341,-2.1344,0,0,0,0,0,0,0,0,0,0,0,0,0,-2.1106,-2.1044,-2.1174,-2.1191,-2.1194,-2.1249,-2.125,-2.1251,-2.1265,-2.1264,-2.1263,-2.1262,-2.1337,-2.134,-2.1344,-2.1386,0,0,-2.1356,-2.1358,0,0,0,0,0,0,0,0,-2.1102,-2.1111,-2.1188,-2.119,-2.1193,-2.1247,-2.1231,-2.1296,-2.1265,-2.1238,-2.1263,-2.1262,-2.1309,-2.1315,-2.1331,-2.139,-2.1393,-2.1356,-2.1359,-2.136,-2.1361,0,0,0,0,0,0,0,-2.1098,-2.1107,-2.1203,-2.1189,-2.1192,-2.1195,-2.1204,-2.1243,-2.1277,-2.124,-2.1241,-2.125,-2.131,-2.1327,-2.1333,-2.1394,-2.1356,-2.136,-2.1362,-2.1364,-2.1492,-2.1493,0,0,0,0,0,0,-2.109,-2.1104,-2.1201,-2.1206,-2.1144,-2.1198,-2.1208,-2.123,-2.1277,-2.1283,-2.1251,-2.1251,-2.1321,-2.1328,-2.1335,-2.1388,-2.136,-2.1364,-2.1366,-2.1491,-2.1492,-2.1493,0,0,0,0,0,0,-2.1087,-2.1099,-2.1198,-2.1155,-2.1168,-2.1202,-2.1227,-2.1232,-2.1249,-2.1285,-2.1291,-2.1262,-2.132,-2.133,-2.1374,-2.139,-2.1366,-2.1369,-2.1489,-2.1491,-2.1492,-2.1493,0,0,0,0,0,0,-2.1083,-2.1098,-2.1114,-2.1155,-2.117,-2.1235,-2.1228,-2.1234,-2.1256,-2.1257,-2.1297,-2.1303,-2.132,-2.1368,-2.1377,-2.1395,-2.1372,-2.1488,-2.149,-2.1492,-2.1491,-2.1494,-2.1496,0,0,0,0,0,-2.1079,-2.1111,-2.1115,-2.1126,-2.1192,-2.1236,-2.1245,-2.1264,-2.1258,-2.1274,-2.1297,-2.1302,-2.1387,-2.1372,-2.1383,-2.1402,-2.1487,-2.1489,-2.1492,-2.149,-2.1493,-2.1496,0,0,0,0,0,0,-2.107,-2.1116,-2.1121,-2.1168,-2.1198,-2.1239,-2.126,-2.1267,-2.13,-2.1298,-2.1321,-2.133,-2.1373,-2.1392,-2.1374,-2.1446,-2.1437,-2.1441,-2.1431,-2.1435,-2.1437,-2.1432,-2.1375,0,0,0,0,0,-2.1073,-2.1106,-2.1145,-2.1182,-2.1197,-2.1226,-2.1246,-2.1259,-2.1291,-2.1304,-2.133,-2.136,-2.1394,-2.1416,-2.1449,-2.1494,-2.1503,-2.1513,-2.1515,-2.1517,-2.1521,-2.1547,-2.1552,-2.1501,-2.1501,-2.1501,0,0,-2.1081,-2.111,-2.1129,-2.1181,-2.1206,-2.1239,-2.1237,-2.1272,-2.1297,-2.1309,-2.1352,-2.1372,-2.1408,-2.1453,-2.1474,-2.147,-2.1537,-2.1521,-2.1522,-2.1525,-2.155,-2.1555,-2.1559,-2.1503,-2.1502,-2.1502,0,0,-2.1111,-2.1137,-2.1171,-2.1196,-2.1234,-2.1253,-2.1262,-2.1301,-2.1315,-2.1359,-2.1369,-2.1399,-2.1456,-2.1481,-2.1501,-2.1542,-2.1548,-2.1552,-2.1566,-2.1591,-2.1595,-2.1598,-2.1613,-2.1618,-2.1556,-2.1556,-2.1556,0,-2.1116,-2.1166,-2.1187,-2.1223,-2.1245,-2.1258,-2.1293,-2.1316,-2.1362,-2.1378,-2.1373,-2.1446,-2.1471,-2.1522,-2.1532,-2.1548,-2.1558,-2.1548,-2.1592,-2.1596,-2.16,-2.1614,-2.162,-2.1556,-2.1556,-2.1556,-2.1556,0,-2.117,-2.1205,-2.1228,-2.1273,-2.1298,-2.1333,-2.1359,-2.1382,-2.1392,-2.1412,-2.1456,-2.1487,-2.1526,-2.1539,-2.155,-2.1592,-2.1589,-2.1588,-2.1579,-2.1605,-2.1618,-2.1624,-2.1557,-2.1557,-2.1557,-2.1557,0,0,-2.1196,-2.1253,-2.1261,-2.1282,-2.1326,-2.1353,-2.1388,-2.1427,-2.1446,-2.1478,-2.1508,-2.1557,-2.1557,-2.158,-2.1593,-2.1615,-2.1646,-2.1612,-2.1613,-2.1617,-2.1694,-2.1694,-2.17,-2.165,-2.1651,-2.1652,-2.1691,0,-2.1232,-2.1296,-2.1316,-2.1369,-2.1401,-2.1415,-2.1446,-2.1475,-2.1495,-2.1525,-2.1546,-2.158,-2.1578,-2.1592,-2.1614,-2.1637,-2.1661,-2.1635,-2.1678,-2.1679,-2.1668,-2.1707,-2.1707,-2.1743,-2.1697,-2.1698,-2.1698,0,-2.1282,-2.1315,-2.1371,-2.1411,-2.1425,-2.1453,-2.149,-2.1519,-2.1553,-2.1566,-2.1592,-2.1604,-2.1641,-2.163,-2.1682,-2.1663,-2.1682,-2.1696,-2.1698,-2.1702,-2.169,-2.1712,-2.1755,-2.176,-2.1707,-2.1706,-2.1706,0,-2.1295,-2.1354,-2.1396,-2.1413,-2.146,-2.1479,-2.15,-2.1533,-2.1555,-2.1588,-2.1603,-2.164,-2.1659,-2.1688,-2.1709,-2.1699,-2.1758,-2.175,-2.177,-2.1769,-2.1781,-2.178,-2.1827,-2.1794,-2.1794,-2.1793,-2.1793,0,-2.1333,-2.1367,-2.1403,-2.1428,-2.1466,-2.1489,-2.1527,-2.1548,-2.1577,-2.1607,-2.1621,-2.1648,-2.1675,-2.1706,-2.1723,-2.1763,-2.1772,-2.1783,-2.1787,-2.1781,-2.178,-2.1793,-2.1791,-2.1795,-2.1795,-2.1794,-2.1794,0,-2.1354,-2.138,-2.1426,-2.1467,-2.1478,-2.1504,-2.1539,-2.1564,-2.1585,-2.1622,-2.1632,-2.1664,-2.1701,-2.1725,-2.1772,-2.1784,-2.1827,-2.1831,-2.1816,-2.1818,-2.1837,-2.1834,-2.1893,-2.1902,-2.1863,-2.1864,-2.1864,0,-2.1376,-2.1403,-2.1447,-2.1468,-2.1489,-2.1522,-2.1546,-2.1569,-2.1593,-2.1634,-2.1654,-2.1692,-2.1724,-2.1783,-2.181,-2.1846,-2.185,-2.1869,-2.1856,-2.185,-2.1851,-2.1849,-2.1851,-2.1871,-2.1871,-2.1871,-2.1871,0,-2.1413,-2.1424,-2.1457,-2.1495,-2.1522,-2.1553,-2.1584,-2.16,-2.1629,-2.1655,-2.1693,-2.1718,-2.1767,-2.1805,-2.1844,-2.1864,-2.1873,-2.1875,-2.1882,-2.1876,-2.1867,-2.1872,-2.1821,-2.1874,-2.1873,-2.1873,-2.1873,-2.1873,-2.1435,-2.1459,-2.1494,-2.1531,-2.1557,-2.1585,-2.1611,-2.1635,-2.1667,-2.1709,-2.1721,-2.1761,-2.1795,-2.1848,-2.187,-2.1901,-2.1899,-2.1909,-2.1911,-2.1913,-2.1913,-2.1862,-2.1908,-2.1908,-2.1908,-2.1908,-2.1908,0,-2.1472,-2.1496,-2.1529,-2.1572,-2.1601,-2.1607,-2.1641,-2.1665,-2.17,-2.1731,-2.1762,-2.1806,-2.1843,-2.1873,-2.1911,-2.1931,-2.1936,-2.194,-2.1939,-2.1943,-2.1913,-2.1903,-2.1935,-2.1935,-2.1935,-2.1935,-2.1935,-2.1935,-2.1495,-2.1536,-2.1552,-2.1606,-2.1629,-2.1669,-2.1688,-2.1715,-2.174,-2.1789,-2.1819,-2.1839,-2.187,-2.191,-2.1944,-2.1952,-2.1965,-2.1969,-2.1978,-2.1948,-2.1945,-2.1942,-2.1934,-2.1972,-2.1972,-2.2005,-2.2006,-2.2006]}]]